Wind_Speed
9 11 14 17 20 24 26 29 31 32 32 33 33 34 35 37 39 41 43 45 47 48 49 50 51 53 54 54 55 56 57 58 56 56 56 56 56 56 55 55 54 53 53 53 52 51 50 49 49 48 47 46 45 44 43 41 40 39 38 38 37 36 35 35 35 34 35 35 35 35 36 37 38 39 40 41 43 45 46 48 49 51 52 54 56 58 60 61
16 19 21 24 27 30 32 34 35 36 37 38 40 42 44 46 48 50 51 53 54 54 55 56 57 58 59 59 60 59 60 61 58 58 59 58 58 58 57 56 56 56 55 55 53 52 51 50 49 48 48 47 46 45 44 43 42 41 40 39 39 38 37 37 37 38 38 39 39 41 42 43 44 45 46 48 50 51 53 54 56 57 59 60 62 64 65 66
23 25 28 31 33 35 37 39 40 42 43 46 48 50 52 53 55 56 56 57 57 58 59 59 60 60 61 61 61 60 62 62 59 59 60 59 59 59 58 58 57 57 56 55 53 52 51 51 50 49 48 48 47 45 44 43 43 42 41 41 40 40 40 40 40 41 41 42 43 44 45 47 48 49 50 51 53 55 56 58 59 61 62 64 66 67 69 70
30 32 34 37 39 41 43 45 47 49 52 54 55 57 57 58 58 58 59 59 59 60 61 61 61 61 62 61 62 61 62 61 60 61 61 60 60 60 59 58 58 57 56 55 54 53 52 52 51 50 49 48 47 45 44 43 43 43 42 42 42 42 42 43 43 44 44 45 45 46 47 48 50 50 52 53 55 56 57 59 61 63 64 67 68 70 71 73
36 38 40 43 46 48 50 52 54 56 58 59 59 60 60 60 60 60 60 61 61 61 62 62 62 62 62 62 62 61 61 62 61 62 61 61 61 60 59 58 57 57 57 56 54 54 53 52 51 50 49 48 47 45 44 44 44 43 43 43 43 44 45 45 45 46 46 46 46 47 48 49 50 51 53 54 55 57 58 60 62 64 66 68 70 72 74 75
41 44 47 50 52 54 56 58 59 60 61 61 61 61 61 61 61 61 62 62 62 62 62 62 62 62 63 63 62 61 62 63 62 62 62 62 61 60 59 58 58 57 57 55 54 54 53 52 50 49 49 47 46 45 45 45 45 45 45 45 45 46 46 46 46 46 46 47 47 48 48 49 51 52 53 55 57 58 60 62 63 65 67 69 71 74 76 77
47 50 53 56 57 59 60 61 62 62 62 62 62 62 62 62 62 62 62 62 63 63 63 63 63 63 64 63 63 62 63 63 62 63 62 62 61 59 59 58 57 57 55 54 53 53 52 50 49 49 48 46 46 45 46 46 46 46 46 46 46 46 46 47 47 47 48 48 48 49 50 51 52 53 54 56 57 59 61 63 64 66 68 71 73 75 77 79
53 56 58 59 61 62 62 63 63 63 62 62 62 62 62 62 62 62 62 63 63 63 63 64 64 64 64 63 63 62 62 62 62 62 61 60 59 58 57 57 56 55 54 53 52 51 50 49 48 48 47 46 46 45 46 45 45 45 45 46 47 47 48 48 49 49 49 50 50 51 51 52 53 54 55 56 58 60 62 63 65 67 70 72 74 76 79 81
57 59 60 61 62 63 63 63 63 63 63 63 63 63 62 62 62 62 63 64 64 64 64 64 65 65 63 62 62 61 62 62 61 61 60 59 58 57 57 56 55 54 52 52 51 50 49 48 48 47 46 45 45 45 45 45 45 45 45 46 47 48 48 49 49 49 50 50 51 51 52 53 54 55 56 57 58 60 62 64 66 69 71 73 75 78 81 84
59 60 61 62 63 63 63 63 63 63 63 63 63 63 62 62 63 63 63 63 64 64 64 65 64 63 62 60 61 61 61 61 60 60 59 58 57 56 55 54 53 52 51 51 49 49 48 47 46 45 44 44 43 43 44 44 44 44 45 46 47 48 48 49 49 49 50 50 51 52 53 53 55 56 57 58 59 61 63 65 68 70 72 74 77 79 82 85
59 60 61 62 62 62 63 63 63 64 64 63 63 63 63 63 63 63 63 63 63 63 64 64 63 62 60 59 60 61 60 59 59 59 57 56 55 54 53 52 51 50 50 49 48 48 47 45 44 43 42 42 42 42 42 43 43 44 45 45 46 47 48 49 49 49 50 51 52 53 54 55 56 57 58 59 60 61 64 66 69 71 74 76 79 81 83 86
59 60 60 61 61 62 62 63 64 64 64 63 63 63 63 63 63 62 62 62 61 62 63 63 62 60 58 58 60 59 58 59 58 56 54 53 53 52 51 50 49 49 49 48 47 46 44 43 42 41 41 41 41 41 42 42 42 43 44 44 45 46 47 48 49 50 51 52 53 54 55 56 57 57 58 60 61 63 65 67 70 73 75 78 80 83 85 88
58 59 59 60 60 61 62 63 63 63 63 63 63 63 63 62 62 62 61 60 60 61 61 62 61 57 56 59 59 57 57 57 55 53 52 50 50 50 49 48 47 47 47 46 44 43 41 40 40 39 40 40 39 40 41 41 42 42 43 44 45 46 47 48 49 51 52 53 54 55 56 57 58 58 60 61 63 64 66 68 71 74 77 80 82 85 87 90
56 57 58 59 60 61 62 62 62 63 63 63 63 62 62 61 61 60 60 59 60 60 59 61 58 53 56 60 57 55 54 53 51 50 49 47 46 46 46 46 46 45 44 42 41 40 38 38 38 38 39 39 39 40 41 41 41 42 43 44 45 45 46 48 50 51 52 53 54 55 56 57 59 60 61 63 64 66 67 69 72 75 78 81 84 86 89 91
55 56 57 58 59 60 61 61 61 61 61 61 61 61 61 60 59 59 59 59 59 59 58 55 52 53 58 57 54 53 51 50 49 47 46 44 43 42 42 43 43 43 41 39 38 37 37 37 37 37 38 39 38 39 40 40 40 41 42 44 44 45 47 48 50 51 52 53 54 55 57 58 60 62 63 64 65 67 68 70 73 76 80 83 85 88 90 92
54 55 57 58 59 59 60 60 60 60 60 60 60 60 59 58 58 58 58 58 58 56 53 49 50 56 57 52 51 51 48 48 46 43 43 41 41 40 40 40 39 39 38 37 36 35 35 35 35 36 37 37 37 38 39 39 39 40 42 44 45 46 48 49 50 52 53 54 56 57 58 61 62 64 65 66 67 68 70 71 74 77 80 84 87 89 92 94
54 55 57 58 58 59 58 58 58 58 58 59 58 58 58 57 57 57 58 57 57 53 47 47 52 57 53 48 49 48 45 45 42 41 41 41 41 39 36 36 35 35 35 35 34 33 32 33 35 36 36 35 36 37 37 37 39 41 43 45 46 47 48 49 50 52 54 56 57 59 61 62 64 65 67 67 68 69 70 72 74 77 81 85 88 91 93 96
55 56 57 58 58 58 57 57 56 56 57 57 57 56 55 57 57 57 56 55 54 50 45 47 53 53 47 44 46 44 42 41 40 41 40 39 39 34 31 32 31 31 32 32 33 30 29 32 34 35 35 35 35 35 36 37 40 43 44 45 46 47 48 50 51 53 55 57 59 61 62 64 66 67 68 69 70 70 71 73 76 78 82 86 89 92 95 97
55 56 57 57 57 57 56 56 56 55 54 54 55 54 54 55 56 55 54 53 51 49 46 48 52 48 42 41 42 40 40 40 40 39 35 33 33 31 28 28 27 27 28 30 31 29 28 32 35 34 34 34 35 35 36 38 41 43 45 46 47 48 49 51 53 55 57 59 61 62 63 65 68 69 70 71 70 70 72 74 77 79 83 87 90 94 96 99
56 56 56 56 56 55 55 55 54 53 52 51 52 54 53 52 53 53 52 50 48 47 47 48 47 43 40 39 38 38 39 38 37 34 31 28 28 28 26 25 23 22 24 29 29 25 27 33 34 33 33 34 35 36 37 39 41 43 45 46 47 49 51 52 54 57 59 61 63 64 66 67 69 71 72 72 72 73 74 76 78 80 84 87 91 95 98 100
54 55 55 55 55 55 54 53 51 51 51 50 50 52 50 49 50 49 48 48 47 46 45 44 43 39 38 37 36 36 37 34 32 31 27 24 24 25 23 21 19 19 24 26 22 20 28 34 31 30 32 33 34 36 37 39 41 43 44 46 48 49 51 53 55 57 60 62 65 67 68 68 70 72 72 73 74 75 76 78 79 80 83 88 92 96 99 101
52 54 54 54 54 53 52 50 49 49 50 48 48 49 48 47 46 44 45 47 45 44 42 40 38 37 36 36 34 34 33 30 29 27 23 21 21 19 17 17 18 20 21 19 16 22 31 30 26 28 30 31 33 35 36 38 40 42 44 45 47 49 51 54 56 57 60 62 65 67 69 70 71 72 72 73 75 75 76 77 78 80 84 89 93 96 99 101
50 52 53 53 53 52 50 49 49 49 48 46 46 46 45 44 42 41 44 45 42 41 39 37 35 34 33 33 31 30 28 26 24 22 20 19 17 14 14 16 17 16 15 14 19 27 28 24 24 27 29 31 33 34 36 38 40 42 42 44 46 48 51 54 57 58 60 62 64 66 69 71 71 71 73 74 75 75 75 76 78 82 87 91 94 96 99 101
49 50 51 52 51 51 50 49 48 47 45 44 43 42 41 40 38 40 43 41 38 37 35 34 33 30 30 29 28 26 23 22 21 19 18 17 15 13 13 13 11 10 12 17 24 27 22 21 24 27 29 31 31 33 36 39 40 41 42 44 46 49 51 55 57 59 61 63 64 66 69 70 70 72 75 76 76 76 76 78 82 86 89 92 94 97 101 103
49 49 50 50 50 50 49 48 47 45 43 42 40 39 38 37 37 38 38 37 35 33 31 30 29 27 26 25 23 21 19 19 19 17 16 15 14 12 10 10 9 11 15 19 23 22 19 20 23 25 27 28 29 34 37 39 41 42 43 46 48 50 53 56 58 60 63 64 66 67 67 68 71 75 77 78 79 79 80 83 87 88 89 91 94 98 102 105
48 48 48 48 48 48 48 46 45 43 41 40 39 37 36 35 35 35 34 32 31 29 28 26 25 23 21 21 19 18 16 16 15 15 13 12 11 9 8 9 11 14 16 18 20 19 18 19 21 23 23 25 30 36 38 39 40 42 45 47 50 52 55 58 60 62 64 66 67 68 68 70 74 78 80 81 81 82 84 86 87 87 89 91 95 99 103 107
47 47 46 46 46 45 45 44 43 41 40 39 37 35 34 34 34 33 31 29 28 27 25 23 23 20 18 18 16 14 14 13 12 12 10 9 7 6 6 9 12 15 16 17 17 16 17 18 19 20 22 27 33 36 37 38 40 44 47 49 52 55 57 59 61 63 65 66 67 69 71 75 79 81 82 83 83 84 85 85 85 87 89 92 96 100 104 108
46 45 45 44 43 43 42 41 40 39 38 37 35 33 32 32 31 30 29 26 24 25 22 20 20 18 17 16 13 12 12 10 10 9 7 6 5 5 6 9 13 14 15 15 15 16 16 17 19 22 26 32 35 36 37 38 42 45 49 52 55 57 59 60 61 63 65 66 68 71 75 79 81 83 83 83 84 85 84 84 85 87 89 93 97 101 104 108
44 44 43 42 41 40 39 38 37 37 36 34 32 30 30 30 29 29 27 24 22 22 19 18 18 17 16 14 12 11 10 7 6 6 4 4 4 6 8 10 13 14 14 15 16 16 16 17 21 26 31 34 35 37 38 40 43 47 50 53 56 59 60 61 63 64 66 68 71 74 78 80 82 83 83 84 85 84 84 83 85 88 91 95 98 100 104 108
43 43 42 41 39 37 36 35 35 34 33 30 28 27 27 26 27 27 26 22 20 20 18 17 16 15 15 13 11 10 7 5 4 3 2 2 4 7 10 11 12 13 15 16 16 16 17 21 26 30 33 35 37 39 41 43 45 48 51 54 56 58 61 63 65 66 68 71 75 78 80 80 81 83 85 85 85 84 83 83 86 89 92 94 97 101 104 109
41 41 41 39 37 35 34 32 31 31 29 27 25 24 24 23 23 25 25 22 19 18 17 15 14 14 14 13 10 8 6 5 3 1 2 4 5 8 10 10 11 13 14 16 17 18 21 26 29 31 34 36 38 41 43 45 47 48 51 53 56 59 62 65 67 69 71 74 77 78 79 79 80 83 85 85 85 85 84 85 88 90 92 94 97 101 105 110
40 40 39 38 37 34 32 30 29 28 26 24 22 21 22 21 19 20 23 22 19 17 15 14 13 12 12 10 8 6 6 6 5 4 4 6 7 8 9 11 13 14 16 18 20 22 26 29 31 33 35 37 39 42 44 45 46 49 51 53 55 58 62 65 69 71 72 74 76 76 77 79 82 84 86 86 86 86 86 88 89 90 92 94 98 103 107 111
38 38 38 37 36 34 31 30 28 26 24 22 21 19 19 19 17 17 20 20 19 17 15 12 11 9 8 7 7 8 9 9 7 5 6 8 8 9 11 13 15 16 18 20 23 26 28 30 32 34 36 37 39 41 43 44 47 49 51 52 54 57 60 64 69 72 72 73 75 76 77 79 82 85 87 88 87 87 88 88 88 90 92 95 99 104 108 111
36 37 36 35 34 32 31 30 28 26 24 22 20 19 17 16 15 16 17 18 17 16 14 11 9 7 7 7 9 10 10 9 7 8 9 10 10 11 13 15 16 18 19 21 23 26 28 30 32 34 35 37 39 41 43 46 48 50 52 55 57 59 62 66 70 72 73 73 74 77 79 82 85 87 88 88 88 89 88 87 88 90 94 97 100 104 108 112
35 35 34 32 31 30 29 29 27 26 24 22 21 19 17 14 13 14 16 15 15 14 12 10 9 8 8 9 10 9 8 9 10 12 13 12 12 13 15 16 18 19 21 23 25 26 28 30 31 34 36 38 40 42 44 47 49 51 55 57 59 61 64 67 69 72 74 75 76 79 83 84 86 87 88 88 90 89 88 88 89 92 95 98 101 105 108 112
33 33 32 31 30 28 27 25 24 23 23 22 21 19 18 15 14 14 15 14 13 12 12 10 10 9 8 8 7 8 10 12 14 15 14 14 14 15 17 18 20 21 23 24 26 27 29 31 32 35 38 40 42 43 45 47 50 52 55 58 60 63 65 66 68 71 74 77 79 80 82 83 85 87 88 90 91 90 89 89 90 92 95 98 100 104 107 111
31 31 31 31 30 28 27 25 22 21 20 20 20 19 18 17 16 15 15 14 13 12 11 11 10 9 8 8 8 10 13 15 16 16 15 16 16 17 19 20 22 23 25 26 28 29 31 34 35 38 40 42 43 45 47 49 52 54 56 59 62 65 66 66 67 70 74 77 80 81 82 84 85 87 89 91 91 91 91 91 91 92 95 97 99 103 106 110
30 30 31 31 30 29 27 25 24 22 21 20 18 18 19 18 18 17 16 15 14 13 13 12 11 10 10 10 11 13 15 16 16 16 17 17 18 20 21 23 24 25 27 28 30 32 34 36 38 39 41 43 44 46 48 51 53 56 59 62 64 66 68 69 70 72 74 76 79 82 84 85 86 88 90 91 91 92 93 93 93 93 95 97 100 103 107 111
30 30 31 31 30 28 27 25 25 24 23 21 20 19 19 19 19 19 18 17 16 15 15 15 13 12 12 13 14 15 16 17 17 17 18 19 21 22 23 25 26 28 29 31 33 35 36 38 40 42 43 45 46 47 48 50 54 58 61 63 65 67 70 72 74 75 77 79 81 83 85 86 87 89 90 90 91 92 93 94 93 94 96 98 100 103 108 112
31 31 31 30 30 28 27 26 25 24 23 23 22 21 21 20 20 20 20 19 18 18 18 17 16 15 15 15 16 17 18 18 18 19 20 21 23 24 25 27 28 30 31 33 35 37 39 41 43 44 45 46 48 49 50 52 56 60 62 64 65 68 70 73 75 76 79 82 85 86 87 87 88 89 91 92 92 92 92 93 93 93 96 98 101 105 108 112
32 32 31 31 30 29 28 27 26 25 25 24 23 23 23 23 22 22 21 21 21 21 20 19 18 18 18 18 19 20 20 20 20 20 22 24 25 26 28 29 31 32 33 35 37 39 41 43 45 46 48 49 50 52 54 57 58 60 62 64 66 68 71 73 76 78 81 84 87 89 89 88 89 90 92 94 94 93 93 93 92 93 96 99 102 104 107 110
33 32 32 31 30 30 29 28 28 27 26 25 25 25 25 24 24 24 23 23 23 23 22 21 21 21 21 22 22 22 22 21 21 23 24 26 27 29 30 32 33 34 35 36 38 40 42 45 47 48 50 52 54 56 58 59 60 61 62 65 68 70 72 74 77 80 83 84 85 89 90 90 91 92 94 95 95 95 95 95 93 94 96 99 101 103 105 109
35 34 32 32 31 31 30 30 29 28 28 27 27 27 26 25 26 26 25 25 26 25 24 24 23 23 24 24 24 24 24 23 24 25 27 28 29 31 32 34 35 37 38 38 39 41 42 45 47 49 51 53 55 57 58 60 61 62 63 65 68 71 73 75 78 81 83 84 84 86 89 91 92 94 95 96 96 96 96 96 95 94 96 98 100 102 105 109
37 35 34 33 32 32 32 31 31 30 30 29 29 29 28 27 27 27 28 28 28 27 27 26 26 26 26 26 26 26 26 26 27 28 29 30 32 33 34 36 37 39 40 40 41 42 44 45 46 49 50 52 54 56 58 59 61 62 64 65 68 71 74 76 78 81 83 85 85 85 88 91 92 93 94 95 96 96 96 95 94 93 94 96 99 101 105 109
38 37 36 35 34 34 33 33 33 33 32 32 31 31 30 29 29 30 30 30 30 29 29 28 28 27 27 28 27 27 28 28 29 30 31 32 34 35 36 38 39 40 42 43 45 46 47 48 49 50 52 53 54 55 57 60 62 64 67 68 70 72 75 78 81 82 84 87 89 88 88 89 90 91 92 93 93 93 93 93 92 92 93 95 98 102 105 109
40 39 38 37 36 36 35 35 35 35 34 34 33 33 32 32 32 32 33 32 32 31 30 30 29 29 29 29 29 29 30 31 31 32 33 35 36 37 38 39 41 43 44 46 48 49 51 52 53 54 55 57 58 59 61 62 64 67 69 72 74 74 76 80 83 84 85 87 89 90 89 89 90 90 90 91 91 91 91 91 90 90 93 96 99 103 106 109
41 41 40 39 39 38 38 37 37 37 36 36 35 35 35 35 35 35 35 34 34 33 32 32 31 31 31 31 31 31 32 33 34 35 36 37 38 39 40 42 43 44 46 48 50 52 53 55 57 57 58 60 62 63 64 65 67 69 71 74 76 77 78 81 83 85 86 87 88 90 91 90 91 91 91 91 91 91 92 91 90 91 94 97 100 103 106 109
41 42 41 41 41 40 40 39 39 39 38 38 38 38 37 37 37 37 37 36 36 35 34 34 34 33 33 33 33 34 35 36 36 37 38 39 40 41 42 43 45 46 48 49 52 54 55 57 59 61 61 62 63 65 66 67 69 70 72 74 77 79 80 81 82 84 87 87 87 88 90 91 91 92 93 92 92 92 93 92 91 92 95 97 99 102 105 108
43 43 43 42 42 42 42 41 41 41 41 40 40 40 40 40 40 39 39 38 38 37 36 36 36 36 36 36 36 36 37 38 39 40 40 41 42 43 44 45 47 48 49 51 53 55 57 58 60 62 63 64 65 67 68 69 70 71 73 75 78 80 82 81 81 84 86 87 88 88 89 90 91 92 94 93 93 93 93 92 91 92 94 96 99 101 104 107
46 45 45 45 45 44 44 44 43 43 43 42 42 42 42 42 42 41 41 40 40 39 39 38 38 38 38 38 38 39 40 40 41 42 43 43 44 45 46 48 49 50 51 53 54 56 58 59 61 63 64 65 66 68 69 70 71 72 74 76 78 81 83 83 83 84 86 87 87 88 89 89 90 91 93 94 93 92 92 90 90 91 93 96 98 101 104 107
48 48 48 47 47 46 46 46 46 45 45 45 44 44 44 44 44 43 42 42 41 41 40 40 40 40 40 41 41 41 42 43 43 44 45 46 47 48 48 50 51 52 53 54 56 57 59 60 61 63 65 66 66 67 69 70 71 73 75 77 79 81 84 85 85 85 86 87 87 88 89 89 90 90 91 92 92 91 90 88 88 91 93 96 98 100 103 107
50 50 50 50 50 49 48 48 48 47 47 47 46 46 46 46 45 45 44 44 43 43 42 42 42 42 43 43 43 44 44 45 45 46 47 48 49 50 51 52 53 54 55 56 57 58 59 61 62 63 65 66 67 68 70 71 72 75 76 78 79 82 85 88 88 86 86 88 87 87 88 89 90 90 90 91 91 90 89 87 88 90 93 96 98 100 103 107
Wind_Direction
117 118 116 117 119 119 120 121 121 121 119 118 117 115 114 112 110 108 107 104 102 100 99 98 97 96 96 95 95 95 95 95 95 96 96 95 95 94 94 93 93 93 93 92 92 92 92 91 91 90 90 90 91 91 90 89 87 85 83 80 77 73 70 66 63 60 56 53 50 47 44 41 38 35 32 29 27 24 22 19 17 15 13 11 9 7 5 3
112 113 115 116 117 118 119 118 118 117 116 116 114 113 112 110 108 106 104 103 101 100 99 98 97 97 97 96 96 97 96 95 95 96 95 95 95 94 94 95 95 96 95 95 95 94 93 93 93 93 92 92 91 89 87 86 83 81 78 75 73 70 66 63 60 56 53 50 47 44 41 38 36 33 31 28 26 24 22 20 18 16 14 12 10 8 6 3
111 113 115 116 116 117 116 115 115 115 115 114 112 110 109 107 106 104 103 102 102 101 100 99 98 98 97 97 96 96 95 96 96 96 95 96 96 97 97 97 97 97 97 96 96 95 94 94 93 92 91 90 88 87 85 83 80 78 74 71 68 66 62 59 56 53 50 47 44 41 39 36 34 32 29 27 25 23 22 20 18 17 15 13 10 9 6 3
111 113 115 115 114 114 113 114 114 114 112 111 110 108 107 105 104 104 103 103 102 101 100 100 99 98 98 97 97 96 97 98 98 97 98 98 99 99 99 99 99 98 97 96 96 95 94 93 92 90 89 87 86 84 83 80 77 74 71 68 65 62 58 55 52 49 46 44 41 39 37 35 33 30 28 26 24 22 21 19 17 16 14 13 10 8 6 3
112 113 113 112 112 113 113 113 113 111 110 109 108 107 106 105 105 105 104 103 102 102 101 101 100 100 99 99 99 100 100 100 100 100 100 100 100 100 100 100 99 98 97 96 96 95 93 92 90 89 87 85 84 82 80 78 74 71 68 64 61 57 54 51 49 46 44 41 39 37 35 33 31 29 27 25 23 21 19 18 17 15 14 12 10 8 6 4
111 111 111 112 112 113 112 111 110 109 108 107 106 106 106 106 105 105 104 104 104 104 103 103 102 102 102 101 102 103 102 102 102 102 102 102 101 101 100 99 98 97 97 96 95 93 92 90 89 88 86 84 82 79 76 73 70 66 63 60 57 54 51 48 46 44 41 39 37 35 33 31 30 27 25 23 21 19 18 17 15 14 13 11 10 7 6 4
110 111 111 112 112 111 110 109 108 108 107 107 107 107 106 106 106 106 107 107 106 106 106 105 105 104 104 104 105 104 103 104 104 103 103 102 101 101 100 99 98 97 96 95 94 92 90 89 88 85 83 81 78 75 72 68 65 62 59 57 54 51 48 45 42 40 38 36 34 32 30 29 27 25 23 21 19 17 16 15 14 13 12 10 9 7 5 4
110 111 111 111 110 109 109 108 108 107 107 107 107 107 108 108 108 109 109 109 109 108 108 107 107 106 106 106 105 104 104 104 104 103 103 102 101 100 99 98 97 96 95 94 93 91 89 87 85 82 80 77 74 71 69 66 63 60 57 54 50 47 44 41 39 36 35 32 31 29 28 26 25 23 22 20 17 16 14 13 12 12 11 10 8 6 5 3
111 111 110 110 109 109 108 108 108 108 108 108 109 109 110 111 111 111 111 111 111 110 109 109 108 107 107 106 105 105 104 104 103 103 102 101 100 99 98 98 97 97 95 94 91 89 87 84 82 79 77 75 72 70 67 64 61 57 54 51 47 44 41 38 36 34 32 30 28 27 25 24 22 21 20 18 16 14 13 11 11 10 10 9 8 6 4 3
111 110 110 109 109 109 109 109 109 110 110 111 112 112 113 113 114 113 113 113 112 111 111 109 108 108 107 107 106 105 104 104 103 102 100 100 100 99 99 98 98 97 95 92 89 87 84 82 80 78 76 74 71 67 64 61 58 55 52 48 45 42 39 36 34 31 30 28 26 25 23 22 20 19 18 16 15 13 11 10 10 9 9 8 7 6 4 3
109 109 109 109 110 110 110 111 111 112 113 114 115 115 115 115 115 115 115 113 113 113 111 110 109 108 107 107 106 105 104 103 102 101 101 102 101 100 99 98 97 94 92 89 87 84 82 80 78 76 74 71 68 64 61 58 55 52 49 46 43 39 36 34 31 29 27 25 24 22 21 20 18 17 16 15 14 12 11 10 9 8 8 7 7 6 4 3
109 109 110 110 111 111 112 113 114 115 116 117 117 117 117 117 117 116 115 114 114 113 111 110 108 108 109 108 106 104 104 103 102 103 103 102 101 100 98 96 94 92 90 87 85 83 82 80 77 75 72 68 65 62 58 55 52 49 47 44 41 37 34 32 29 27 25 23 22 20 19 18 17 15 14 13 12 11 10 9 8 7 7 7 6 6 5 3
109 110 110 111 112 112 114 115 116 118 119 119 119 119 119 119 117 116 116 116 115 113 111 109 108 110 111 107 105 105 104 104 104 103 102 101 100 99 97 95 93 91 88 86 85 83 82 79 76 73 70 66 62 59 56 52 50 47 44 41 38 35 32 29 26 24 23 21 20 18 17 16 15 14 13 12 11 11 9 8 7 7 6 6 6 6 5 3
109 110 111 112 113 114 116 117 119 120 120 121 121 121 120 119 118 118 117 116 114 112 111 109 111 114 109 105 105 105 104 104 103 102 100 99 98 98 97 95 92 88 86 85 84 82 80 77 73 69 65 62 58 55 52 49 46 44 41 38 35 32 29 26 24 22 20 19 17 16 15 14 14 13 12 11 10 10 9 8 7 6 6 6 6 5 5 3
110 111 112 113 115 117 118 120 121 121 122 122 122 121 120 120 120 119 118 116 114 112 111 113 115 112 106 105 107 105 104 103 101 100 100 99 98 96 94 91 89 87 85 83 81 79 77 73 69 65 61 58 54 51 48 45 42 40 38 35 33 29 26 23 21 19 18 17 15 14 13 13 13 12 11 10 9 9 8 8 7 6 5 5 6 5 5 3
111 113 114 116 118 119 120 121 122 123 123 123 122 122 121 121 121 119 117 115 113 113 115 116 114 108 106 108 107 105 104 102 101 101 101 98 95 91 89 88 88 87 85 82 79 76 74 70 66 62 58 54 50 47 44 41 39 37 34 32 30 27 24 21 18 16 14 14 13 12 12 12 11 11 10 10 9 8 7 7 6 5 5 5 5 5 5 4
114 116 118 119 120 121 122 123 123 124 123 123 123 122 122 122 120 118 117 116 115 116 118 116 111 106 108 109 107 105 104 104 104 101 97 93 90 87 88 88 87 86 85 83 77 73 71 68 64 59 55 51 47 43 40 38 36 34 31 29 27 24 22 19 16 14 12 11 11 10 10 10 10 10 9 9 8 7 7 6 6 5 5 4 5 5 5 4
118 119 120 121 122 123 123 124 124 124 124 124 123 123 123 121 119 118 117 117 117 117 117 114 109 107 110 111 108 107 106 103 99 94 91 90 90 88 88 87 86 85 84 81 75 71 69 65 61 57 52 47 43 40 37 35 33 30 28 26 23 21 19 17 14 12 11 10 9 9 8 8 9 8 8 8 8 7 6 6 6 5 4 4 4 5 5 4
121 122 122 123 124 124 125 125 125 125 125 125 124 123 122 120 119 119 119 118 117 117 117 112 108 110 113 110 108 107 102 97 93 91 91 92 93 93 90 87 85 83 83 79 72 67 65 62 57 52 47 43 39 36 33 31 29 27 25 23 20 18 15 14 12 11 10 9 8 7 7 7 8 7 7 7 7 6 6 6 6 5 4 4 4 5 5 5
124 124 125 126 126 126 126 126 126 126 125 125 124 122 121 120 120 119 119 119 118 117 115 111 110 113 113 109 107 103 97 95 95 94 93 93 95 94 89 85 82 81 80 73 69 66 62 57 52 47 43 39 35 32 29 27 25 24 22 20 18 15 12 11 11 9 8 7 6 6 6 7 7 7 6 5 5 6 6 6 6 5 4 4 4 5 6 5
126 127 128 128 128 128 128 127 127 127 126 125 124 121 121 121 120 121 121 119 118 116 113 112 113 115 112 107 103 99 96 96 97 95 94 93 91 90 91 90 84 76 71 69 71 68 57 50 44 40 39 35 32 29 25 23 22 21 19 17 15 12 10 9 8 8 7 6 6 5 4 6 6 6 5 4 5 5 6 5 5 5 4 4 4 5 5 5
129 130 130 130 129 129 128 128 128 128 127 126 123 122 121 121 122 123 121 118 117 115 114 115 115 113 109 105 102 99 98 98 98 99 100 96 93 95 100 93 79 68 65 70 73 58 47 42 37 37 35 32 30 26 22 21 19 18 16 14 13 10 8 7 6 7 6 5 5 4 3 4 6 5 4 5 5 5 5 5 4 4 4 5 5 5 5 4
132 133 132 131 130 130 129 130 129 129 128 126 124 122 122 123 125 124 119 117 118 116 117 117 113 110 108 106 103 101 101 101 101 102 101 96 93 93 88 80 75 73 69 66 57 47 40 34 32 32 31 28 26 22 19 18 16 15 13 12 10 8 7 6 4 4 5 5 4 3 4 4 3 3 4 6 5 5 4 4 4 5 5 5 5 4 4 4
135 134 133 133 132 131 132 131 131 130 129 127 125 124 125 126 125 121 118 119 120 119 119 117 114 112 110 107 105 105 106 104 100 96 94 92 87 82 79 78 81 79 62 48 47 44 36 29 29 29 26 22 20 18 16 14 13 12 9 8 8 6 6 5 4 2 2 3 2 3 4 2 1 3 5 5 5 4 3 4 5 6 5 4 4 4 4 4
136 136 135 134 134 134 134 133 132 132 130 129 128 128 127 127 124 120 120 122 123 122 121 119 117 115 112 111 111 112 109 103 97 91 87 87 85 82 81 76 71 63 49 43 45 43 33 28 28 26 22 18 16 15 13 11 10 8 6 6 5 4 4 4 3 1 0 0 1 2 2 360 1 4 5 5 5 4 4 5 6 6 5 4 4 3 3 4
137 137 137 136 136 136 136 135 134 134 132 131 131 131 129 127 123 121 122 124 126 126 126 125 121 118 119 119 118 117 110 102 97 91 87 86 85 85 79 67 61 54 44 40 40 35 28 26 24 21 19 16 15 13 10 8 7 5 3 4 3 2 3 3 1 1 359 359 359 359 359 360 2 4 5 5 4 4 5 5 5 4 4 3 4 4 3 4
139 139 139 138 139 138 138 137 137 136 135 135 134 133 131 127 125 123 124 127 130 130 131 130 125 127 130 126 126 123 114 107 100 95 92 90 88 80 65 56 53 46 38 35 31 25 21 20 18 16 15 14 12 9 6 5 4 2 2 2 1 1 1 1 360 359 357 357 357 356 358 1 4 4 4 4 4 4 5 4 4 4 3 3 4 4 3 4
141 141 141 141 141 141 141 140 139 139 139 139 139 136 133 131 129 127 127 131 132 129 131 133 132 138 139 134 139 133 120 118 112 105 103 97 81 53 41 41 42 36 29 25 20 15 13 12 11 10 10 9 7 5 3 3 2 1 1 1 360 360 359 358 358 358 356 356 356 357 360 3 3 3 3 3 4 4 4 3 3 3 3 3 4 4 3 4
143 143 143 144 144 144 144 143 143 144 144 144 143 139 137 135 134 132 130 133 132 129 134 139 140 146 145 146 156 143 129 135 129 119 105 77 52 27 18 23 28 25 19 13 8 5 1 2 5 6 6 4 2 2 1 1 1 360 0 0 359 358 357 355 356 356 355 355 356 358 1 2 2 2 2 3 4 4 2 2 2 3 4 3 3 3 3 4
145 146 146 147 147 147 146 146 147 149 150 149 146 142 141 140 139 136 134 136 136 135 141 145 149 154 151 162 171 153 145 165 159 129 70 6 7 11 5 6 12 13 8 3 358 353 352 358 2 2 1 359 359 359 359 359 359 358 360 359 358 356 355 354 355 355 355 356 357 359 1 1 1 1 2 3 3 3 1 1 2 3 4 3 2 2 3 4
149 149 150 150 151 150 150 151 153 155 154 152 149 147 146 146 144 139 138 143 144 143 147 149 157 163 161 172 179 166 175 201 209 243 303 309 344 2 350 346 356 0 358 353 348 345 350 357 359 357 357 357 357 357 358 357 357 357 358 358 357 355 353 353 353 354 356 357 357 358 359 358 359 1 1 2 2 2 1 1 3 3 3 2 1 2 3 4
153 153 154 154 154 154 155 156 159 159 158 157 155 153 152 152 152 146 145 151 151 150 154 157 164 169 166 174 184 188 210 231 247 271 301 320 340 342 329 334 345 350 351 347 342 344 351 355 354 354 354 354 354 355 355 354 354 356 356 356 356 355 353 353 353 354 356 357 356 356 357 358 359 1 1 1 1 1 1 2 2 2 2 2 2 2 3 4
157 157 157 157 157 158 160 162 163 163 163 163 162 162 161 158 160 156 153 157 157 156 162 166 171 175 171 182 202 217 231 243 258 287 311 314 318 321 326 335 342 345 347 343 342 345 349 350 350 350 349 350 352 353 352 351 352 354 354 354 355 354 353 353 353 353 354 355 355 354 356 358 359 0 1 0 360 1 2 2 1 1 1 2 2 2 2 3
161 162 161 161 162 164 166 167 168 168 168 169 168 170 171 169 170 167 163 165 165 164 169 174 183 190 194 207 220 229 240 257 283 300 298 295 305 321 329 333 336 339 340 338 340 343 344 346 346 345 345 348 350 351 350 350 351 352 352 353 354 353 354 355 354 353 352 353 353 353 355 359 360 0 360 359 359 1 1 0 360 0 1 2 2 1 2 3
166 166 164 165 167 170 172 173 173 174 174 175 176 177 179 182 185 179 174 177 178 174 176 182 195 207 215 225 233 246 265 283 290 286 285 293 310 321 324 327 329 333 334 334 338 339 340 342 342 341 343 348 349 348 348 349 350 350 352 352 352 353 354 355 353 351 350 351 352 354 356 358 359 359 358 358 359 0 0 360 360 1 1 2 2 1 2 2
171 170 168 170 173 176 179 181 182 183 182 181 182 184 185 191 199 194 187 192 195 189 186 193 204 218 230 241 256 273 278 276 274 276 286 300 311 316 318 322 325 328 330 331 334 336 336 337 339 341 344 347 347 346 346 347 348 350 351 351 351 352 354 353 351 351 350 350 352 355 356 357 358 358 357 358 359 359 359 360 360 1 2 2 1 1 1 2
177 174 174 176 178 180 184 187 191 194 193 192 191 190 191 196 205 208 204 205 207 203 201 207 214 225 240 253 265 268 266 266 271 281 294 304 310 314 315 319 323 325 327 329 331 332 333 336 339 341 344 344 344 344 345 346 347 349 349 350 351 351 351 351 350 351 351 351 352 353 355 356 357 357 358 358 358 358 359 359 359 1 1 1 1 0 1 1
183 180 180 183 185 187 189 192 195 198 200 203 205 202 199 200 207 216 218 215 215 215 216 221 223 231 243 254 260 264 266 271 278 289 298 305 309 312 314 318 320 322 325 327 329 331 333 335 337 339 341 341 342 343 344 345 346 348 348 350 350 350 349 349 350 351 351 351 352 353 354 355 356 357 357 357 357 358 358 358 359 360 360 0 1 0 0 1
190 186 187 190 192 194 197 199 201 202 202 206 210 212 211 209 211 219 226 224 223 224 226 228 231 237 247 256 261 266 271 276 283 292 300 305 307 310 313 316 318 320 323 326 328 329 332 334 335 337 338 339 340 341 342 343 346 347 348 348 349 348 348 349 349 350 350 351 352 353 353 354 354 356 356 356 357 358 358 357 358 358 359 359 0 0 360 0
195 192 193 196 198 200 203 205 207 209 209 209 210 213 219 221 219 223 230 232 231 231 232 233 237 243 252 259 264 268 272 278 286 294 299 302 304 307 311 313 315 318 321 324 326 329 330 333 334 335 335 337 338 338 340 344 346 347 347 347 348 348 349 349 349 349 350 351 351 352 353 353 353 354 355 356 357 357 357 357 357 357 358 359 360 0 360 360
200 198 199 201 203 205 208 210 212 214 216 216 214 214 220 226 229 230 233 236 238 237 238 240 243 249 255 260 264 267 272 280 288 294 297 300 302 306 309 311 314 317 320 323 326 328 330 331 332 332 333 335 336 338 341 343 345 345 345 346 347 348 348 349 349 349 350 352 351 350 351 351 352 353 354 355 356 356 357 357 356 356 357 358 360 360 359 359
205 204 205 206 208 210 213 215 217 219 220 221 220 220 221 226 230 234 237 240 242 242 243 245 248 252 256 260 264 269 274 282 288 292 295 298 301 305 308 310 313 315 319 322 325 327 328 329 330 331 333 334 336 338 340 341 342 343 345 346 347 347 348 349 349 349 350 351 351 350 349 350 351 352 354 354 355 355 356 356 356 356 357 358 359 359 359 359
210 211 211 212 213 215 217 219 221 223 224 225 225 226 227 228 231 235 239 242 245 246 247 248 250 253 257 261 266 271 277 283 287 290 293 297 300 303 306 308 310 313 316 319 322 324 325 327 328 329 331 333 335 337 338 339 340 342 344 345 346 346 348 349 349 349 349 349 350 349 349 349 351 352 353 353 354 355 355 354 354 355 356 357 357 358 358 359
215 216 218 218 219 219 220 222 224 225 227 228 229 229 231 232 234 237 240 242 245 247 248 250 252 255 259 263 268 273 279 282 285 289 292 295 298 301 303 306 308 311 314 317 319 321 322 324 326 327 329 331 333 335 336 338 339 341 342 344 345 346 347 348 349 349 348 347 348 349 350 349 350 350 352 353 353 353 353 353 353 354 355 355 356 357 358 359
219 221 222 223 223 224 224 225 227 228 229 231 232 233 235 236 238 240 242 244 245 247 250 252 255 257 261 265 270 274 278 281 285 287 290 293 296 299 302 305 308 311 314 316 318 320 322 323 325 327 329 331 332 334 336 338 339 340 341 343 345 346 347 347 347 347 348 347 347 348 350 349 348 349 351 352 353 352 352 352 352 353 354 355 356 357 358 359
222 224 226 227 227 227 228 228 229 230 232 233 235 236 238 240 241 243 244 246 248 250 252 255 257 260 263 267 271 274 278 280 283 286 289 292 295 298 301 304 307 311 314 316 318 320 322 324 326 328 330 331 333 335 336 337 338 340 341 342 343 345 346 347 346 346 347 347 347 347 347 347 347 348 349 351 351 351 351 351 351 352 353 354 356 357 358 359
225 226 228 229 230 230 231 231 232 233 235 236 238 240 242 243 245 246 247 249 251 252 254 256 259 262 264 268 271 274 277 280 283 286 289 292 295 298 301 304 308 311 314 316 318 320 322 324 326 328 329 330 332 334 335 336 337 339 341 341 342 343 345 346 345 345 346 346 347 346 345 346 346 346 348 350 350 350 350 351 351 351 353 354 356 357 357 358
227 229 230 231 231 232 233 234 235 236 238 239 241 243 245 246 248 249 250 252 253 255 256 258 260 263 265 268 271 274 277 280 283 286 289 292 295 299 301 304 307 310 313 315 317 319 321 323 324 326 328 329 330 332 333 335 337 339 339 340 341 342 343 344 344 345 345 345 346 345 345 345 345 345 346 348 349 350 350 350 350 351 352 354 355 356 357 358
229 230 232 233 233 234 235 236 237 239 240 242 244 246 248 249 250 252 253 254 256 257 258 260 262 264 267 269 272 275 278 281 284 287 290 293 296 298 301 304 306 309 312 314 316 318 319 321 323 324 326 328 329 330 332 334 336 337 338 340 341 341 341 342 344 344 344 344 344 344 344 344 344 345 345 347 349 349 349 349 349 350 352 353 355 356 356 357
230 231 233 234 235 236 237 238 239 241 242 244 245 247 249 250 252 254 255 257 258 260 261 262 264 266 268 271 273 276 279 282 285 287 290 293 295 298 300 303 305 308 310 312 314 316 318 319 321 322 324 326 327 329 331 333 334 336 338 339 340 339 339 340 343 343 343 343 343 343 343 343 343 344 345 346 347 348 348 348 349 349 351 353 354 355 356 356
230 232 233 235 236 237 238 240 241 242 244 245 246 248 249 251 253 255 257 258 260 262 263 264 266 268 270 272 275 277 280 282 285 287 290 293 295 298 300 303 305 307 309 311 313 315 316 318 319 321 322 323 325 327 329 331 333 335 337 338 338 339 339 340 341 343 342 342 342 342 342 342 342 344 344 344 346 347 347 347 348 349 350 352 354 355 355 355
231 232 233 235 237 238 239 241 242 243 245 246 247 249 250 252 253 255 257 259 261 263 264 266 267 269 271 273 275 278 280 282 285 287 290 293 295 298 300 302 304 306 308 310 312 313 315 317 318 319 320 321 324 326 328 330 333 334 336 336 337 338 339 339 340 341 341 340 341 341 341 341 341 343 344 343 345 346 347 347 348 349 350 352 353 354 354 355
Height
10643 10644 10644 10645 10647 10648 10650 10653 10655 10658 10661 10663 10666 10669 10672 10674 10676 10679 10680 10682 10683 10685 10686 10687 10688 10688 10689 10690 10691 10693 10693 10694 10699 10701 10701 10703 10705 10706 10708 10710 10712 10714 10717 10718 10721 10723 10725 10727 10728 10730 10731 10732 10733 10734 10735 10736 10736 10737 10737 10736 10736 10736 10735 10734 10733 10731 10729 10728 10726 10724 10722 10720 10717 10714 10712 10709 10705 10702 10698 10695 10691 10686 10682 10677 10673 10668 10663 10657
10644 10645 10646 10647 10649 10651 10653 10655 10658 10661 10664 10667 10669 10672 10675 10678 10680 10682 10683 10685 10687 10688 10689 10690 10691 10692 10693 10694 10696 10698 10697 10697 10704 10705 10705 10707 10708 10710 10712 10714 10716 10718 10720 10722 10725 10727 10728 10730 10732 10733 10734 10735 10736 10737 10738 10738 10738 10738 10738 10737 10737 10736 10735 10734 10733 10731 10729 10727 10725 10723 10720 10718 10715 10712 10709 10706 10702 10699 10695 10691 10687 10683 10678 10673 10668 10663 10657 10651
10646 10647 10649 10650 10652 10654 10656 10659 10662 10665 10668 10670 10673 10676 10679 10681 10683 10685 10686 10688 10690 10692 10693 10694 10695 10696 10698 10699 10701 10703 10701 10702 10709 10709 10709 10711 10713 10715 10717 10719 10721 10722 10724 10726 10728 10730 10732 10733 10735 10736 10737 10738 10738 10739 10739 10739 10739 10739 10738 10737 10737 10736 10736 10734 10732 10731 10729 10727 10724 10722 10719 10716 10713 10710 10707 10704 10700 10696 10692 10688 10684 10679 10674 10669 10664 10658 10652 10646
10650 10651 10652 10653 10655 10657 10660 10663 10666 10669 10672 10675 10677 10680 10682 10684 10686 10689 10691 10693 10694 10695 10697 10698 10700 10701 10702 10703 10704 10707 10706 10709 10713 10712 10714 10717 10718 10720 10722 10724 10725 10726 10728 10730 10731 10733 10735 10736 10737 10738 10739 10739 10740 10740 10741 10740 10740 10739 10739 10738 10738 10737 10735 10734 10732 10730 10728 10726 10724 10721 10718 10715 10712 10709 10705 10702 10698 10694 10690 10686 10681 10676 10671 10665 10659 10654 10648 10642
10653 10654 10656 10657 10659 10661 10664 10668 10671 10674 10676 10679 10681 10683 10686 10688 10690 10693 10695 10697 10698 10700 10701 10702 10704 10705 10707 10707 10709 10712 10713 10714 10717 10717 10719 10721 10723 10725 10726 10728 10730 10731 10732 10734 10735 10736 10737 10738 10739 10740 10741 10741 10742 10742 10742 10741 10741 10740 10740 10739 10738 10736 10735 10733 10732 10730 10728 10726 10723 10721 10718 10715 10712 10708 10705 10701 10697 10693 10688 10683 10678 10673 10667 10662 10656 10650 10644 10637
10657 10658 10659 10661 10664 10667 10670 10673 10676 10678 10680 10683 10685 10688 10690 10693 10695 10697 10699 10701 10703 10704 10705 10707 10708 10710 10711 10713 10715 10718 10718 10719 10722 10722 10723 10725 10727 10730 10730 10732 10733 10734 10736 10737 10738 10738 10739 10741 10742 10742 10742 10743 10743 10744 10743 10742 10741 10741 10740 10739 10737 10736 10735 10733 10732 10730 10728 10726 10723 10720 10717 10714 10710 10706 10703 10699 10694 10690 10685 10680 10675 10669 10664 10658 10652 10646 10640 10633
10661 10663 10665 10667 10670 10672 10675 10677 10680 10682 10685 10687 10690 10692 10695 10698 10700 10702 10704 10706 10707 10708 10709 10711 10713 10715 10717 10719 10721 10722 10722 10724 10726 10726 10728 10730 10731 10733 10734 10735 10737 10738 10739 10740 10741 10741 10742 10743 10744 10744 10744 10745 10745 10744 10743 10742 10742 10741 10740 10739 10738 10736 10735 10733 10731 10729 10727 10724 10722 10718 10715 10711 10708 10704 10700 10696 10692 10687 10682 10677 10671 10666 10660 10654 10648 10642 10635 10628
10667 10669 10671 10673 10675 10677 10679 10682 10684 10687 10689 10692 10695 10697 10700 10703 10705 10707 10708 10709 10711 10713 10714 10716 10717 10719 10723 10724 10725 10727 10727 10729 10730 10731 10732 10733 10735 10737 10737 10738 10740 10741 10742 10743 10743 10744 10745 10746 10746 10746 10746 10746 10746 10745 10744 10743 10743 10742 10741 10739 10738 10736 10734 10732 10730 10728 10725 10722 10720 10716 10713 10709 10706 10702 10697 10693 10689 10684 10679 10673 10668 10662 10656 10650 10644 10637 10630 10622
10673 10674 10676 10678 10680 10682 10684 10686 10689 10692 10694 10697 10700 10702 10705 10708 10710 10712 10713 10714 10715 10717 10719 10721 10722 10724 10728 10729 10730 10732 10732 10732 10734 10734 10736 10736 10738 10740 10740 10741 10743 10744 10745 10746 10746 10747 10748 10748 10748 10748 10748 10748 10748 10747 10746 10745 10744 10742 10741 10739 10737 10736 10734 10732 10729 10727 10724 10721 10718 10715 10711 10708 10704 10699 10695 10691 10686 10681 10676 10670 10664 10658 10652 10646 10639 10632 10624 10616
10679 10680 10681 10683 10684 10686 10689 10691 10694 10696 10699 10702 10705 10707 10710 10712 10714 10716 10717 10719 10720 10722 10723 10725 10726 10728 10732 10733 10734 10735 10735 10735 10737 10738 10739 10740 10742 10743 10744 10745 10747 10747 10747 10748 10749 10749 10749 10750 10750 10750 10750 10750 10749 10748 10747 10746 10744 10743 10741 10739 10738 10736 10734 10732 10729 10727 10724 10721 10718 10714 10710 10706 10702 10697 10693 10688 10683 10678 10673 10667 10661 10654 10648 10641 10634 10626 10619 10611
10684 10685 10686 10688 10690 10692 10694 10696 10699 10701 10704 10707 10710 10712 10714 10716 10718 10720 10722 10723 10725 10727 10727 10728 10730 10732 10735 10738 10737 10738 10738 10739 10740 10741 10743 10744 10745 10746 10747 10749 10750 10750 10750 10750 10751 10751 10751 10752 10752 10752 10752 10751 10750 10749 10748 10746 10745 10743 10742 10740 10738 10736 10734 10732 10730 10727 10724 10721 10717 10713 10709 10704 10700 10695 10690 10685 10680 10675 10669 10663 10657 10651 10644 10636 10629 10622 10614 10605
10690 10691 10692 10694 10695 10697 10699 10701 10704 10706 10709 10712 10714 10716 10718 10721 10723 10724 10726 10728 10730 10731 10731 10732 10734 10736 10739 10740 10740 10741 10742 10742 10744 10746 10747 10748 10749 10749 10750 10752 10752 10752 10752 10752 10753 10753 10754 10754 10754 10754 10753 10751 10751 10750 10748 10747 10746 10744 10743 10741 10739 10737 10735 10732 10730 10727 10723 10719 10715 10711 10706 10702 10698 10693 10688 10683 10678 10672 10666 10660 10654 10647 10640 10632 10624 10616 10608 10600
10696 10697 10698 10700 10701 10703 10705 10707 10709 10712 10714 10716 10718 10720 10722 10725 10726 10729 10730 10732 10734 10735 10735 10735 10737 10742 10743 10741 10743 10745 10746 10746 10748 10750 10751 10752 10753 10753 10753 10754 10755 10754 10754 10754 10755 10755 10756 10756 10755 10755 10753 10752 10752 10750 10749 10748 10746 10745 10744 10741 10739 10737 10735 10732 10730 10726 10722 10718 10714 10710 10706 10702 10697 10692 10686 10680 10674 10668 10662 10656 10650 10643 10636 10628 10619 10611 10602 10594
10703 10704 10705 10706 10708 10709 10711 10713 10715 10717 10719 10721 10723 10724 10727 10728 10730 10733 10734 10736 10737 10738 10740 10739 10742 10748 10745 10743 10748 10750 10750 10751 10753 10754 10755 10756 10757 10757 10757 10756 10756 10756 10756 10757 10757 10757 10758 10757 10756 10755 10754 10752 10752 10751 10749 10748 10747 10746 10744 10741 10739 10737 10735 10732 10728 10725 10721 10718 10714 10710 10706 10701 10696 10689 10683 10677 10671 10665 10659 10652 10646 10639 10632 10624 10616 10607 10597 10588
10709 10710 10711 10713 10714 10716 10718 10719 10721 10723 10724 10726 10727 10729 10731 10732 10735 10736 10738 10740 10740 10742 10745 10746 10748 10748 10745 10748 10752 10753 10755 10756 10757 10758 10759 10760 10760 10760 10760 10758 10757 10758 10759 10759 10759 10759 10759 10758 10757 10755 10754 10753 10752 10751 10750 10749 10748 10746 10744 10742 10740 10737 10734 10730 10727 10724 10721 10717 10713 10709 10704 10699 10693 10686 10680 10674 10668 10662 10655 10649 10641 10634 10627 10619 10611 10602 10593 10584
10716 10717 10718 10719 10721 10722 10724 10725 10727 10728 10729 10731 10732 10733 10735 10737 10738 10740 10741 10743 10744 10747 10750 10752 10753 10749 10749 10755 10756 10756 10759 10758 10760 10762 10762 10763 10762 10762 10762 10761 10761 10760 10761 10761 10761 10761 10760 10759 10757 10755 10754 10753 10753 10751 10750 10750 10748 10746 10744 10741 10738 10735 10732 10729 10726 10723 10719 10715 10711 10707 10701 10695 10689 10684 10678 10672 10665 10658 10651 10644 10637 10630 10623 10615 10606 10597 10588 10578
10721 10722 10724 10725 10727 10728 10730 10731 10733 10734 10734 10736 10737 10738 10739 10740 10742 10743 10745 10746 10748 10752 10755 10756 10754 10751 10755 10760 10758 10760 10762 10762 10764 10764 10763 10763 10763 10764 10765 10765 10765 10764 10763 10762 10762 10762 10762 10760 10757 10755 10755 10755 10753 10752 10752 10751 10748 10745 10742 10739 10736 10734 10731 10728 10725 10721 10717 10713 10708 10703 10697 10692 10687 10681 10674 10668 10662 10655 10648 10641 10633 10626 10619 10610 10602 10593 10582 10572
10726 10727 10729 10730 10732 10733 10735 10737 10738 10739 10740 10740 10741 10743 10744 10744 10746 10747 10748 10751 10752 10755 10759 10758 10754 10755 10762 10763 10761 10763 10764 10765 10765 10764 10765 10765 10764 10767 10769 10768 10767 10767 10765 10764 10763 10764 10764 10761 10757 10756 10756 10755 10754 10753 10752 10750 10747 10743 10741 10738 10736 10733 10730 10728 10724 10720 10715 10711 10705 10700 10695 10689 10683 10677 10671 10665 10658 10652 10645 10637 10629 10622 10614 10606 10597 10588 10577 10567
10730 10732 10733 10735 10736 10738 10740 10741 10743 10744 10745 10746 10745 10747 10749 10749 10749 10751 10752 10755 10756 10757 10761 10760 10756 10761 10766 10766 10765 10766 10765 10765 10765 10766 10768 10769 10768 10770 10771 10770 10770 10769 10767 10765 10764 10765 10765 10760 10756 10756 10756 10756 10754 10753 10751 10748 10745 10743 10740 10737 10735 10732 10729 10726 10722 10718 10713 10708 10703 10698 10693 10686 10679 10673 10667 10661 10656 10650 10642 10634 10626 10618 10610 10602 10593 10583 10573 10563
10735 10736 10738 10739 10741 10742 10744 10745 10747 10748 10750 10751 10750 10750 10753 10754 10754 10755 10757 10758 10759 10761 10762 10761 10761 10766 10768 10768 10769 10768 10766 10767 10768 10769 10772 10773 10771 10771 10772 10772 10772 10771 10769 10766 10765 10767 10765 10758 10756 10757 10757 10756 10754 10752 10750 10748 10745 10742 10739 10737 10734 10730 10727 10724 10720 10715 10710 10705 10699 10694 10689 10683 10677 10670 10664 10659 10653 10645 10637 10629 10622 10615 10607 10598 10589 10579 10568 10559
10740 10741 10742 10744 10745 10746 10748 10749 10751 10752 10753 10755 10755 10754 10757 10759 10759 10760 10760 10761 10763 10764 10764 10765 10766 10769 10770 10770 10771 10770 10769 10771 10771 10772 10774 10775 10774 10773 10773 10773 10773 10772 10770 10768 10769 10768 10762 10756 10758 10759 10757 10756 10754 10752 10750 10747 10744 10741 10739 10736 10733 10730 10727 10723 10718 10714 10708 10703 10697 10690 10685 10681 10675 10669 10664 10657 10647 10640 10633 10626 10619 10612 10604 10595 10584 10574 10564 10556
10745 10746 10747 10748 10749 10750 10752 10753 10755 10756 10757 10759 10759 10759 10761 10762 10763 10765 10763 10764 10766 10766 10767 10769 10771 10772 10772 10772 10773 10772 10773 10774 10774 10775 10776 10777 10776 10776 10776 10773 10773 10773 10772 10771 10770 10765 10759 10759 10762 10760 10757 10756 10754 10752 10750 10747 10744 10741 10739 10736 10733 10731 10727 10722 10717 10713 10708 10702 10696 10690 10684 10678 10673 10669 10664 10655 10645 10637 10630 10624 10618 10610 10601 10591 10581 10571 10563 10554
10750 10750 10751 10751 10752 10753 10755 10757 10759 10760 10761 10762 10763 10764 10765 10766 10768 10768 10766 10767 10769 10770 10771 10773 10774 10774 10774 10774 10775 10775 10776 10777 10778 10778 10778 10778 10778 10778 10776 10774 10775 10775 10774 10772 10768 10762 10760 10763 10763 10759 10757 10756 10754 10753 10750 10747 10744 10741 10739 10737 10734 10731 10726 10721 10715 10711 10707 10702 10696 10691 10683 10676 10673 10669 10661 10652 10644 10637 10630 10625 10617 10605 10594 10585 10576 10568 10560 10551
10754 10754 10755 10755 10756 10757 10758 10760 10762 10763 10765 10766 10767 10768 10769 10770 10772 10771 10769 10771 10773 10774 10775 10776 10776 10777 10777 10777 10777 10778 10780 10780 10779 10780 10779 10779 10779 10778 10777 10777 10777 10775 10774 10771 10766 10762 10764 10764 10762 10759 10757 10755 10754 10752 10749 10746 10744 10741 10740 10737 10733 10730 10725 10720 10715 10709 10704 10701 10697 10691 10683 10678 10674 10667 10657 10649 10642 10636 10630 10621 10609 10597 10588 10580 10572 10564 10556 10546
10757 10758 10758 10759 10759 10760 10761 10763 10765 10766 10768 10769 10770 10772 10773 10774 10774 10773 10773 10774 10776 10777 10778 10779 10779 10780 10780 10780 10781 10781 10782 10781 10781 10781 10781 10780 10780 10779 10779 10779 10777 10775 10774 10771 10767 10765 10766 10765 10762 10760 10758 10757 10755 10751 10748 10745 10743 10741 10739 10735 10731 10728 10723 10718 10714 10708 10702 10698 10694 10689 10685 10681 10672 10662 10652 10644 10637 10631 10622 10609 10598 10591 10585 10579 10571 10562 10552 10542
10760 10761 10762 10762 10763 10764 10764 10766 10767 10769 10770 10771 10773 10775 10776 10776 10776 10776 10777 10778 10779 10780 10781 10782 10781 10782 10783 10783 10783 10783 10783 10783 10782 10782 10782 10782 10781 10781 10781 10779 10777 10775 10773 10770 10768 10767 10767 10765 10763 10761 10760 10758 10754 10750 10747 10745 10743 10740 10737 10733 10729 10725 10720 10716 10711 10706 10701 10696 10690 10686 10683 10677 10666 10655 10647 10639 10632 10623 10612 10602 10596 10590 10584 10577 10569 10559 10549 10538
10763 10764 10765 10766 10767 10767 10768 10769 10770 10771 10772 10774 10775 10777 10778 10778 10778 10778 10780 10782 10782 10782 10784 10784 10783 10785 10785 10785 10786 10785 10785 10785 10784 10784 10784 10783 10783 10783 10781 10779 10777 10774 10772 10771 10770 10769 10768 10766 10764 10762 10760 10756 10752 10749 10748 10745 10742 10739 10734 10730 10726 10722 10718 10714 10709 10704 10699 10694 10689 10684 10677 10667 10656 10648 10641 10634 10627 10618 10608 10602 10597 10591 10584 10575 10565 10554 10545 10535
10766 10767 10768 10769 10770 10771 10772 10772 10773 10774 10775 10776 10777 10778 10779 10780 10780 10781 10782 10784 10785 10785 10786 10786 10786 10786 10787 10787 10788 10787 10786 10786 10786 10785 10785 10785 10784 10783 10782 10779 10776 10774 10773 10772 10771 10769 10768 10766 10765 10762 10758 10754 10752 10750 10747 10744 10741 10737 10732 10728 10723 10719 10715 10712 10709 10705 10698 10693 10688 10681 10669 10658 10651 10645 10639 10632 10623 10614 10608 10604 10598 10591 10582 10571 10560 10551 10542 10531
10769 10770 10771 10772 10773 10774 10775 10776 10777 10778 10779 10779 10780 10780 10781 10781 10782 10783 10784 10786 10787 10787 10788 10788 10788 10788 10788 10789 10789 10788 10788 10788 10788 10787 10786 10785 10784 10783 10781 10779 10776 10775 10773 10772 10771 10770 10769 10767 10764 10760 10757 10754 10752 10749 10746 10743 10740 10736 10731 10726 10721 10717 10713 10711 10707 10703 10697 10691 10683 10673 10663 10655 10650 10644 10638 10630 10621 10614 10609 10604 10596 10587 10576 10566 10558 10551 10541 10529
10771 10772 10773 10775 10776 10777 10778 10779 10780 10781 10781 10782 10783 10783 10784 10784 10784 10785 10785 10788 10789 10788 10789 10790 10790 10790 10790 10790 10791 10790 10789 10789 10789 10788 10787 10786 10785 10783 10781 10779 10777 10775 10774 10773 10772 10771 10769 10766 10762 10759 10756 10754 10751 10747 10744 10741 10738 10735 10730 10726 10721 10717 10713 10709 10704 10700 10694 10684 10674 10666 10659 10655 10651 10644 10635 10626 10620 10614 10609 10602 10593 10582 10572 10564 10558 10550 10539 10527
10773 10774 10775 10777 10778 10780 10781 10782 10783 10784 10784 10785 10785 10785 10786 10787 10787 10786 10787 10789 10790 10790 10791 10791 10792 10792 10791 10791 10791 10790 10790 10790 10789 10788 10787 10787 10785 10783 10782 10780 10778 10776 10774 10773 10772 10771 10768 10764 10760 10758 10755 10753 10749 10746 10742 10739 10737 10734 10731 10727 10723 10717 10711 10705 10700 10695 10688 10679 10672 10666 10661 10657 10651 10643 10634 10626 10619 10613 10607 10597 10587 10578 10571 10565 10557 10546 10535 10523
10775 10776 10777 10778 10780 10781 10783 10784 10785 10786 10787 10787 10787 10788 10788 10789 10789 10789 10788 10790 10791 10791 10792 10793 10793 10793 10792 10792 10792 10791 10791 10791 10790 10789 10788 10787 10785 10783 10782 10781 10778 10776 10774 10773 10772 10770 10766 10763 10760 10757 10754 10752 10748 10745 10742 10740 10738 10734 10731 10727 10723 10717 10711 10703 10697 10691 10685 10679 10674 10670 10665 10657 10648 10640 10631 10623 10617 10611 10602 10591 10582 10576 10571 10563 10553 10541 10530 10519
10777 10778 10779 10780 10781 10782 10784 10785 10787 10788 10789 10789 10790 10790 10790 10790 10791 10791 10791 10791 10791 10792 10793 10793 10794 10793 10793 10792 10792 10792 10792 10791 10790 10789 10788 10787 10785 10784 10782 10780 10778 10776 10774 10773 10771 10768 10765 10762 10760 10757 10754 10752 10748 10746 10744 10741 10737 10734 10731 10728 10723 10719 10713 10705 10697 10689 10685 10682 10676 10671 10665 10656 10646 10637 10627 10621 10615 10607 10596 10587 10582 10577 10569 10559 10548 10538 10526 10516
10778 10779 10780 10781 10782 10784 10785 10786 10787 10788 10789 10790 10791 10792 10792 10792 10792 10792 10792 10793 10792 10792 10793 10794 10794 10794 10793 10793 10793 10793 10792 10791 10790 10789 10788 10787 10786 10784 10782 10780 10779 10777 10775 10773 10771 10768 10766 10763 10760 10757 10755 10752 10749 10746 10744 10740 10735 10731 10728 10724 10719 10715 10710 10702 10695 10688 10684 10681 10677 10669 10658 10649 10640 10632 10625 10620 10612 10602 10594 10590 10584 10574 10564 10554 10545 10536 10524 10513
10780 10781 10782 10783 10785 10786 10787 10787 10788 10789 10790 10791 10792 10792 10793 10794 10794 10794 10794 10794 10794 10793 10793 10794 10794 10794 10794 10794 10793 10792 10791 10790 10790 10789 10789 10787 10785 10783 10782 10780 10779 10777 10775 10773 10771 10768 10765 10763 10760 10757 10755 10752 10749 10746 10742 10739 10735 10730 10725 10721 10718 10714 10708 10701 10695 10689 10683 10678 10673 10663 10651 10643 10636 10630 10625 10617 10607 10600 10595 10588 10579 10569 10559 10549 10541 10532 10523 10512
10782 10782 10783 10784 10786 10787 10789 10789 10790 10790 10790 10791 10792 10793 10793 10794 10795 10795 10795 10795 10795 10794 10794 10794 10794 10794 10794 10793 10793 10792 10791 10791 10791 10790 10789 10787 10785 10783 10782 10780 10778 10776 10774 10772 10770 10767 10765 10762 10760 10757 10753 10750 10748 10745 10742 10738 10734 10729 10725 10721 10716 10711 10707 10703 10698 10691 10681 10672 10665 10659 10652 10645 10638 10631 10623 10613 10604 10598 10592 10583 10575 10567 10557 10548 10541 10533 10523 10512
10783 10783 10784 10785 10786 10788 10789 10790 10791 10792 10792 10792 10792 10793 10793 10794 10795 10795 10795 10795 10795 10795 10794 10794 10794 10794 10793 10793 10792 10792 10792 10792 10791 10790 10788 10786 10784 10783 10781 10779 10777 10775 10773 10771 10768 10766 10764 10761 10758 10755 10752 10749 10746 10743 10739 10735 10732 10728 10724 10719 10713 10708 10705 10703 10698 10691 10682 10672 10663 10656 10650 10643 10636 10629 10619 10610 10603 10595 10587 10580 10573 10564 10556 10550 10542 10533 10523 10513
10784 10784 10785 10786 10787 10788 10789 10790 10791 10792 10793 10793 10793 10793 10793 10794 10795 10795 10795 10795 10795 10794 10794 10794 10794 10793 10793 10793 10793 10792 10792 10791 10790 10789 10787 10785 10783 10781 10780 10778 10776 10774 10772 10769 10767 10764 10762 10759 10756 10754 10751 10748 10745 10741 10738 10734 10729 10725 10721 10716 10711 10707 10701 10696 10691 10686 10679 10673 10664 10655 10646 10639 10633 10625 10616 10610 10602 10591 10582 10575 10567 10560 10554 10548 10539 10530 10520 10509
10785 10785 10786 10787 10787 10788 10789 10790 10790 10791 10792 10793 10793 10794 10794 10794 10794 10795 10795 10795 10794 10794 10794 10794 10793 10793 10793 10792 10792 10792 10791 10790 10789 10787 10785 10783 10782 10780 10778 10776 10774 10772 10769 10767 10765 10762 10760 10757 10754 10751 10749 10746 10743 10740 10737 10734 10728 10723 10718 10714 10709 10704 10697 10690 10684 10679 10673 10667 10660 10653 10644 10635 10628 10621 10615 10609 10599 10589 10580 10571 10563 10557 10551 10544 10536 10526 10515 10505
10786 10786 10787 10787 10788 10789 10789 10790 10791 10791 10792 10792 10793 10793 10794 10794 10794 10794 10794 10794 10794 10794 10793 10793 10793 10792 10792 10792 10791 10791 10790 10788 10787 10785 10783 10782 10780 10778 10776 10774 10772 10770 10768 10766 10763 10760 10757 10755 10752 10749 10746 10744 10741 10738 10735 10731 10726 10721 10716 10712 10708 10702 10696 10688 10681 10676 10669 10660 10650 10644 10639 10632 10626 10619 10613 10604 10595 10588 10581 10572 10563 10555 10549 10541 10531 10520 10511 10502
10786 10786 10787 10788 10788 10789 10789 10790 10790 10791 10791 10792 10792 10792 10793 10793 10794 10794 10794 10794 10793 10793 10793 10792 10792 10791 10791 10790 10790 10789 10788 10787 10785 10783 10782 10780 10778 10776 10775 10773 10771 10769 10767 10764 10761 10758 10754 10751 10749 10746 10743 10740 10737 10734 10730 10726 10723 10720 10716 10711 10706 10700 10694 10688 10680 10671 10664 10656 10646 10638 10634 10630 10623 10615 10607 10599 10591 10585 10578 10570 10563 10555 10547 10537 10527 10519 10512 10504
10786 10787 10787 10788 10788 10789 10789 10790 10790 10791 10791 10791 10791 10792 10792 10792 10793 10793 10793 10793 10793 10792 10792 10791 10790 10790 10790 10789 10789 10788 10786 10785 10783 10781 10780 10778 10776 10774 10773 10771 10769 10767 10764 10762 10759 10756 10753 10749 10746 10743 10740 10737 10734 10730 10726 10723 10720 10717 10714 10708 10702 10697 10692 10686 10678 10669 10662 10656 10648 10638 10629 10623 10616 10609 10602 10595 10588 10580 10572 10565 10559 10551 10542 10533 10526 10520 10513 10503
10786 10786 10787 10787 10788 10789 10789 10789 10790 10790 10790 10790 10791 10791 10791 10791 10791 10791 10792 10792 10791 10791 10790 10790 10789 10789 10788 10788 10787 10786 10785 10783 10781 10780 10778 10776 10774 10773 10771 10769 10767 10765 10762 10760 10758 10755 10752 10749 10746 10742 10739 10736 10732 10728 10725 10722 10718 10715 10711 10706 10701 10696 10690 10684 10676 10668 10660 10655 10652 10643 10631 10619 10611 10604 10597 10590 10582 10574 10568 10562 10555 10548 10540 10533 10527 10520 10511 10500
10785 10786 10787 10787 10787 10788 10788 10788 10789 10789 10789 10789 10790 10790 10790 10790 10790 10790 10790 10790 10790 10789 10789 10788 10788 10787 10787 10786 10785 10784 10783 10781 10780 10778 10776 10774 10773 10771 10769 10767 10765 10763 10760 10758 10755 10753 10751 10749 10746 10743 10740 10737 10733 10729 10725 10721 10717 10714 10710 10706 10701 10695 10688 10682 10676 10669 10660 10653 10649 10644 10632 10620 10612 10605 10598 10590 10581 10573 10566 10561 10554 10547 10541 10534 10527 10518 10508 10497
10784 10785 10786 10786 10786 10787 10787 10787 10788 10788 10788 10788 10789 10789 10789 10789 10789 10789 10789 10788 10788 10788 10787 10787 10786 10786 10785 10784 10783 10782 10781 10779 10778 10776 10774 10772 10771 10769 10767 10765 10763 10760 10758 10755 10752 10750 10748 10746 10744 10741 10738 10735 10732 10728 10724 10720 10715 10711 10705 10701 10697 10692 10685 10678 10672 10666 10659 10649 10639 10635 10631 10623 10615 10609 10601 10593 10585 10578 10571 10563 10555 10548 10542 10534 10524 10514 10504 10493
10783 10784 10784 10785 10785 10786 10786 10786 10786 10787 10787 10787 10787 10787 10787 10787 10787 10787 10787 10787 10786 10786 10786 10785 10784 10784 10783 10782 10781 10780 10779 10777 10776 10774 10772 10770 10768 10767 10765 10763 10760 10758 10755 10752 10749 10746 10744 10741 10739 10736 10732 10729 10726 10723 10719 10715 10711 10706 10701 10695 10690 10687 10682 10675 10667 10661 10655 10648 10637 10628 10625 10621 10613 10607 10602 10595 10587 10581 10573 10565 10557 10548 10540 10530 10520 10509 10500 10490
10781 10782 10782 10783 10784 10784 10784 10785 10785 10785 10785 10786 10786 10786 10786 10786 10786 10785 10785 10785 10784 10784 10784 10783 10782 10781 10780 10780 10779 10777 10776 10775 10773 10771 10770 10768 10766 10764 10762 10760 10758 10755 10752 10749 10746 10743 10740 10736 10733 10731 10729 10725 10721 10718 10715 10711 10707 10702 10697 10692 10686 10682 10678 10672 10665 10658 10651 10646 10639 10628 10620 10616 10609 10602 10597 10592 10586 10578 10569 10561 10553 10544 10534 10525 10515 10505 10497 10488
10779 10780 10780 10781 10782 10782 10783 10783 10783 10784 10784 10784 10784 10784 10784 10783 10783 10783 10783 10783 10782 10782 10781 10781 10780 10779 10778 10777 10776 10775 10773 10772 10770 10769 10767 10766 10764 10762 10760 10757 10755 10752 10750 10747 10744 10741 10738 10734 10730 10727 10725 10722 10718 10715 10712 10708 10703 10699 10695 10690 10684 10678 10675 10671 10666 10658 10649 10642 10637 10629 10620 10612 10606 10598 10591 10587 10581 10573 10564 10556 10548 10540 10531 10522 10514 10505 10496 10487
10777 10777 10778 10779 10780 10780 10781 10781 10781 10782 10782 10782 10782 10782 10781 10781 10781 10781 10780 10780 10780 10779 10779 10778 10777 10776 10775 10774 10773 10772 10771 10769 10768 10766 10765 10763 10761 10759 10757 10755 10753 10750 10748 10745 10742 10739 10736 10733 10729 10725 10721 10719 10715 10712 10708 10704 10700 10697 10693 10688 10682 10676 10672 10669 10665 10657 10649 10641 10634 10628 10620 10611 10604 10596 10588 10582 10576 10568 10560 10553 10545 10538 10530 10522 10513 10504 10494 10486
10773 10774 10775 10776 10777 10778 10778 10779 10779 10779 10779 10779 10779 10779 10779 10779 10778 10778 10778 10778 10777 10777 10776 10775 10775 10774 10773 10772 10771 10770 10768 10767 10765 10764 10762 10761 10759 10757 10755 10752 10750 10748 10746 10744 10741 10738 10735 10732 10729 10724 10719 10716 10713 10709 10706 10703 10699 10696 10691 10686 10681 10675 10669 10664 10660 10654 10647 10640 10632 10625 10619 10612 10604 10596 10586 10578 10573 10566 10558 10551 10544 10536 10529 10520 10511 10502 10493 10485
10770 10771 10772 10773 10774 10775 10775 10776 10776 10777 10777 10777 10777 10776 10777 10776 10776 10776 10775 10775 10775 10774 10773 10773 10772 10771 10770 10769 10768 10767 10765 10764 10763 10761 10759 10758 10756 10754 10752 10750 10748 10745 10743 10741 10739 10736 10733 10730 10727 10723 10718 10715 10713 10709 10705 10702 10698 10694 10689 10685 10679 10674 10665 10658 10654 10650 10642 10636 10630 10623 10615 10609 10603 10596 10587 10578 10572 10566 10558 10551 10543 10534 10526 10518 10509 10500 10492 10483
10766 10767 10768 10769 10770 10771 10772 10772 10773 10773 10774 10774 10774 10774 10774 10773 10773 10773 10773 10772 10772 10771 10771 10770 10769 10768 10767 10766 10765 10764 10763 10761 10760 10758 10756 10755 10753 10751 10749 10747 10744 10742 10740 10738 10736 10734 10731 10727 10724 10722 10718 10713 10710 10707 10703 10700 10696 10691 10687 10683 10677 10671 10662 10652 10647 10645 10639 10632 10627 10621 10614 10606 10599 10594 10587 10578 10570 10564 10557 10549 10541 10533 10524 10515 10506 10498 10490 10480